This is the latest recevied weather packets stored in our database for station/object HB9Y1. If no packets are shown the sender has not sent any weather packets the latest 10 day(s).
| Time | Temp. | Humidity | Pressure | Rain* | Wind** | Luminosity | Snow |
|---|---|---|---|---|---|---|---|
| 1777848804 | 7.78° C | 56% | 1016.8 hPa | 0 mm | - | 0 W/m² | - |
| 1777847012 | 7.78° C | 57% | 1016.5 hPa | 0 mm | - | 0 W/m² | - |
| 1777846424 | 7.78° C | 56% | 1016.7 hPa | 0 mm | - | 0 W/m² | - |
| 1777844652 | 7.78° C | 56% | 1016.7 hPa | 0 mm | - | 0 W/m² | - |
| 1777843412 | 7.78° C | 59% | 1016.8 hPa | 0 mm | - | 0 W/m² | - |
| 1777840398 | 8.33° C | 60% | 1016.9 hPa | 0 mm | - | 0 W/m² | - |
| 1777839812 | 8.33° C | 61% | 1016.5 hPa | 0 mm | - | 0 W/m² | - |
| 1777831412 | 8.89° C | 66% | 1016.1 hPa | 0 mm | - | 19 W/m² | - |
| 1777830798 | 8.89° C | 66% | 1015.8 hPa | 0 mm | - | 24 W/m² | - |
| 1777829604 | 9.44° C | 65% | 1016.1 hPa | 0 mm | - | 45 W/m² | - |
| 1777828404 | 9.44° C | 65% | 1015.7 hPa | 0 mm | - | 73 W/m² | - |
| 1777826612 | 9.44° C | 63% | 1015.9 hPa | 0 mm | - | 105 W/m² | - |
| 1777825998 | 9.44° C | 63% | 1016.1 hPa | 0 mm | - | 117 W/m² | - |
| 1777824226 | 9.44° C | 64% | 1016.1 hPa | 0 mm | - | 72 W/m² | - |
| 1777820612 | 8.89° C | 69% | 1016.5 hPa | 0 mm | - | 47 W/m² | - |
| 1777818824 | 8.89° C | 74% | 1016.7 hPa | 0 mm | - | 77 W/m² | - |
| 1777816438 | 10° C | 67% | 1016.9 hPa | 0 mm | - | 131 W/m² | - |
| 1777815812 | 10° C | 68% | 1016.9 hPa | 0 mm | - | 156 W/m² | - |
| 1777806818 | 11.67° C | 59% | 1016.9 hPa | 0 mm | - | 572 W/m² | - |
| 1777804404 | 11.11° C | 59% | 1017.3 hPa | 0 mm | - | 625 W/m² | - |
| 1777799604 | 11.11° C | 59% | 1017.3 hPa | 0 mm | - | 363 W/m² | - |
| 1777798424 | 11.11° C | 58% | 1017.3 hPa | 0 mm | - | 482 W/m² | - |
| 1777794252 | 10.56° C | 59% | 1017.3 hPa | 0 mm | - | 332 W/m² | - |
| 1777789412 | 8.89° C | 62% | 1017.3 hPa | 0 mm | - | 117 W/m² | - |
| 1777788212 | 8.33° C | 59% | 1017.3 hPa | 0 mm | - | 94 W/m² | - |
* Rain latest hour (hover to see other rain measurements)
** Current wind speed in m/s (hover to see current wind gust speed)